Home   Weather   Fairfield Park   Past weeks
Flag for USA

Past Weather in Fairfield Park, Ohio, USA — Yesterday and Last 2 Weeks

Now
30 °F

Overcast.


Feels Like: 19 °F
Forecast: 34 / 28 °F
Wind: 14 mph from West

Location: Dayton / Wright-Patterson Air Force Base

Current Time: Dec 15, 2019 at 10:33:55 am

Latest Report: Dec 15, 2019 at 9:56 am


Visibility: 10 mi

Pressure: 30.14 "Hg

Humidity: 64%

Dew Point: 19 °F

Location of Fairfield ParkLocation

Past Weather in Fairfield Park — Graph

°F

Fairfield Park Temperature Yesterday

Maximum temperature yesterday: 44 °F (at 1:56 pm)
Minimum temperature yesterday: 35 °F (at 11:56 pm)
Average temperature yesterday: 40 °F

High & Low Weather Summary for the Past Weeks

 TemperatureHumidityPressure
High56 °F (Dec 9, 6:56 pm)100% (Dec 1, 1:56 am)30.60 "Hg (Dec 1, 1:56 am)
Low16 °F (Dec 11, 4:56 am)42% (Dec 5, 2:56 pm)29.35 "Hg (Dec 1, 5:19 am)
Average37 °F77%29.96 "Hg
* Reported Nov 30 8:43 am — Dec 15 8:56 am, Fairfield Park. Weather by CustomWeather, © 2019

Note: Actual official high and low records may vary slightly from our data, if they occured in-between our weather recording intervals... More about our weather records

Fairfield Park Weather History for the Previous 24 Hours

Scroll right to see more
 ConditionsComfort  
Time TempWeatherWind HumidityBarometerVisibility
8:56 am
Sun, Dec 15
30 °FOvercast.8 mph64%30.10 "Hg10 mi
7:56 am29 °FOvercast.13 mph65%30.09 "Hg10 mi
6:56 am30 °FOvercast.15 mph67%30.05 "Hg10 mi
5:56 am30 °FOvercast.10 mph67%30.01 "Hg10 mi
4:56 am31 °FOvercast.10 mph69%29.97 "Hg10 mi
3:56 am31 °FOvercast.8 mph68%29.95 "Hg10 mi
3:26 am32 °FOvercast.12 mph69%29.94 "Hg10 mi
2:56 am31 °FOvercast.16 mph68%29.92 "Hg10 mi
1:56 am32 °FOvercast.13 mph75%29.88 "Hg10 mi
1:16 am32 °FOvercast.13 mph80%29.87 "Hg10 mi
12:56 am33 °FMostly cloudy.10 mph86%29.86 "Hg10 mi
12:22 am34 °FDrizzle. Mostly cloudy.13 mph87%29.85 "Hg8 mi
11:56 pm
Sat, Dec 14
35 °FOvercast.14 mph80%29.83 "Hg10 mi
11:16 pm37 °FMostly cloudy.15 mph75%29.81 "Hg10 mi
9:56 pm40 °FOvercast.12 mph82%29.77 "Hg10 mi
8:56 pm40 °FOvercast.9 mph82%29.76 "Hg10 mi
8:26 pm41 °FMostly cloudy.10 mph81%29.75 "Hg10 mi
7:56 pm41 °FMostly cloudy.12 mph81%29.75 "Hg10 mi
6:56 pm40 °FOvercast.8 mph78%29.74 "Hg10 mi
5:56 pm41 °FOvercast.9 mph75%29.72 "Hg10 mi
4:56 pm42 °FMostly cloudy.10 mph71%29.70 "Hg10 mi
4:06 pm43 °FMostly cloudy.8 mph71%29.69 "Hg10 mi
3:56 pm43 °FMostly cloudy.14 mph69%29.68 "Hg10 mi
2:56 pm43 °FOvercast.10 mph74%29.67 "Hg10 mi
2:26 pm43 °FMostly cloudy.13 mph76%29.65 "Hg10 mi
1:56 pm44 °FOvercast.10 mph70%29.64 "Hg10 mi
1:27 pm43 °FMostly cloudy.9 mph71%29.65 "Hg10 mi
12:25 pm41 °FFog.9 mph81%29.65 "Hg5 mi
11:56 am41 °FFog.10 mph84%29.65 "Hg4 mi
11:06 am41 °FFog.10 mph87%29.66 "Hg4 mi
10:16 am39 °FFog.9 mph93%29.67 "Hg4 mi
Weather by CustomWeather, © 2019

See weather overview

Advertising